Regional Weather Roundup
Issued by NWS

Home | Current Version | Previous Version | Graphics & Text | Print | Product List | Glossary On
Versions: 1 2 3 4 5 6 7 8 9 10 11 12 13 14 15 16 17 18 19 20 21 22 23 24 25 26 27
000
ASUS45 KBOU 250106
RWRCO

WEATHER ROUNDUP FOR COLORADO
NATIONAL WEATHER SERVICE DENVER/BOULDER CO
700 PM MDT THU APR 24 2014

NOTE: "FAIR" INDICATES FEW OR NO CLOUDS BELOW 12000 FEET WITH NO
SIGNIFICANT WEATHER AND/OR OBSTRUCTIONS TO VISIBILITY.

COZ001>005-013-030-031-250200-
...NORTHWEST COLORADO...

CITY           SKY/WX    TMP DP  RH WIND       PRES   REMARKS
CRAIG          MOSUNNY   56  20  24 W17G25    29.97F
HAYDEN         PTCLDY    54  19  26 W13       30.00F
MEEKER         PTSUNNY   58  18  21 SW12      29.97F
MOUNT WERNER   CLOUDY    36  10  35 W20G29    30.12R
STEAMBOAT SPGS CLOUDY    55  10  16 W9G18     30.00R
WALDEN         MOCLDY    43  18  36 W18       30.00S
$$

COZ006>008-011-250200-
...WEST CENTRAL VALLEYS...

CITY           SKY/WX    TMP DP  RH WIND       PRES   REMARKS
GRAND JUNCTION PTSUNNY   63  14  15 CALM      29.96F
MONTROSE       PTCLDY    62  12  14 N6        30.01F
EAGLE          MOCLDY    57  14  18 W13       30.01S
RIFLE          PTSUNNY   60   9  13 W18G26    29.97S
DELTA          NOT AVBL
NUCLA          NOT AVBL
$$

COZ017>023-064>068-250200-
...SOUTHWEST COLORADO...

CITY           SKY/WX    TMP DP  RH WIND       PRES   REMARKS
DURANGO        CLEAR     59 -13   5 SW16G24   30.04S
CORTEZ         SUNNY     62  -2   7 NW10      30.04S
PAGOSA SPRINGS CLEAR     57  -6   7 SW12      30.09S
TELLURIDE      CLEAR     48   5  17 W6        30.12S
WOLF CREEK PAS CLEAR     32   5  32 SW22G29   30.22S WCI  19
$$

COZ009-010-012-014-032>034-037-058>063-250200-
...CENTRAL COLORADO...

CITY           SKY/WX    TMP DP  RH WIND       PRES   REMARKS
ASPEN          MOCLDY    52  11  19 SW7       30.03S
BUENA VISTA    PTCLDY    54   5  13 W15G22    30.02R
COPPER MTN     MOCLDY    34  10  37 W21G28    30.17R WCI  22
BERTHOUD PASS  CLOUDY    27  18  69 NW26G36   30.16R WCI  11
COTTONWOOD PAS PTCLDY    48   0  13 NW9G21    30.09R
GUNNISON       CLEAR     54   7  15 W16G22    30.09R
KREMMLING      CLOUDY    52   9  17 SW13G21   30.02R
LEADVILLE      MOCLDY    42  10  27 VRB5      30.09R
MONARCH PASS   CLEAR     34   5  29 W33G48    30.28R WCI  19
SALIDA         PTCLDY    60   4  10 SW16G26   30.06R
SUNLIGHT       PTCLDY    36  19  51 CALM      30.15S
WILKERSON PASS PTCLDY    37   9  30 W9G22     30.15R
$$

COZ069>075-250200-
...SAN LUIS VALLEY/SANGRE DE CRISTO MOUNTAINS...

CITY           SKY/WX    TMP DP  RH WIND       PRES   REMARKS
ALAMOSA        PTCLDY    61  10  13 W15       29.98R
LA VETA PASS   CLEAR     43   7  22 SW15G25   30.10S
SAGUACHE       CLEAR     55   3  12 NW18G26   30.01R
$$

COZ035-036-038>040-250200-
...NORTHERN COLORADO FRONT RANGE...

CITY           SKY/WX    TMP DP  RH WIND       PRES   REMARKS
DENVER INTL AP PTCLDY    58  32  37 E14       29.87S
DMNS CITY PARK   N/A     64  27  25 E7        29.85S
AURORA         MOCLDY    59  32  36 E15       29.88S
FRONT RANGE AP NOT AVBL
ERIE MUNI ARPT MOCLDY    61  28  28 E13G18    29.86R
BOULDER MUN AP MOCLDY    61  28  29 NE7       29.86R
CENTENNIAL     MOCLDY    60  26  27 SE9       29.88R
BROOMFIELD     PTCLDY    64  27  24 NE5       29.88S
FORT COLLINS   MOCLDY    63  25  23 SE8       29.88S
LONGMONT       NOT AVBL
$$

COZ041-046-047-076>085-087-088-250200-
...PIKES PEAK/PALMER DIVIDE AND SOUTHERN FOOTHILLS...

CITY           SKY/WX    TMP DP  RH WIND       PRES   REMARKS
COLO. SPRINGS  MOCLDY    55  19  24 SE10      29.93S
A. F. ACADEMY  NOT AVBL
ELLICOTT       NOT AVBL
FALCON         PTCLDY    50  19  28 SE7       29.96S
FORT CARSON    NOT AVBL
LIMON          CLEAR     57  15  19 S8        29.91R
MONUMENT HILL  MOCLDY    50  23  34 S14       29.94S
TRINIDAD       CLEAR     67  20  16 E8        29.89S
$$

COZ042>045-048>051-090-091-250200-
...NORTHEAST COLORADO...

CITY           SKY/WX    TMP DP  RH WIND       PRES   REMARKS
GREELEY ARPT   PTCLDY    63  25  23 SE12      29.87S
AKRON          CLEAR     58  21  24 S8        29.88F
BURLINGTON     CLEAR     63  13  14 CALM      29.90S
WRAY           CLEAR     66  16  15 SW8       29.86S
STERLING       NOT AVBL
HOLYOKE        NOT AVBL
FORT MORGAN    NOT AVBL
$$

COZ086-089-092>099-250200-
...SOUTHEAST COLORADO...

CITY           SKY/WX    TMP DP  RH WIND       PRES   REMARKS
PUEBLO         PTCLDY    63  22  20 E22       29.84S
LA JUNTA       CLEAR     63  21  20 E18       29.85F
LAMAR          MOCLDY    65  17  15 SE12      29.87F
SPRINGFIELD      N/A     61  21  21 SE12      29.91S
$$



USA.gov is the U.S. government's official web portal to all federal, state and local government web resources and services.